CXO

Last updated on Sun Dec 14 2025 00:03:35 GMT+0000 (Coordinated Universal Time)

1 25867U 99040B 25349.26321703 .00000427 00000+0 00000+0 0 9998 2 25867 53.0917 122.4070 8132318 310.8570 0.2053 0.37806491 16624
UTC large
Height (km)
Speed (km/s)
/
Latitude / Longitude
Inclination (degrees)
Orbital Period (minutes)
Azimuth
Elevation
Range (km)
Doppler Factor

Next 0 passes for location: London (51.5072 / 0.1276)

Sorry there are no passes over London.